Address 0xb5fc4d5388952dc7a798fe784fe659f9a20e5ca4

 
Ad
Ad
Txn Hash Method
Block
From
To
Value [Txn Fee]
0x84300928c9729f10e198b1d6a0bd7e692ca16745865789ccb1701caa1ae1bd5fSplit Position219974912021-12-01 3:12:1320 mins ago0xb5fc4d5388952dc7a798fe784fe659f9a20e5ca4OUT 0x4d97dcd97ec945f40cf65f87097ace5ea04760450 MATIC0.00443737875
0x795262b84d26e1c5f54f1abc856b141f47555222c11020c534660dc0a157a5ceBuy219974782021-12-01 3:11:4721 mins ago0xb5fc4d5388952dc7a798fe784fe659f9a20e5ca4OUT 0x76b2844f6cf632e3bae6c096737a0cb88ebb25970 MATIC0.0057365595
0x1fe48cfaee56c585cddacf180c0f769db126fd09918dbe1a3b2c100d4ae63d3fBuy219974742021-12-01 3:11:3921 mins ago0xb5fc4d5388952dc7a798fe784fe659f9a20e5ca4OUT 0x76b2844f6cf632e3bae6c096737a0cb88ebb25970 MATIC0.00669265275
0x32ff232353c9cb398c490dc371490065a0ba4b7b6801cd36a2b7bdf263a320feBuy219974672021-12-01 3:11:2521 mins ago0xb5fc4d5388952dc7a798fe784fe659f9a20e5ca4OUT 0x76b2844f6cf632e3bae6c096737a0cb88ebb25970 MATIC0.00669309375
0xc826ff85bf2f301465f68241de2d707a3bac992a2178ec5edae3d093469c6af6Sell219973822021-12-01 3:08:3124 mins ago0xb5fc4d5388952dc7a798fe784fe659f9a20e5ca4OUT 0x237ff66fc18ec5061313243f1397f1d56603aec70 MATIC0.001731555
0xa6a72ec451f87ff28633aa6441b8e75c2bc41485540580a6d6ce109aa10ea892Split Position219973792021-12-01 3:08:2524 mins ago0xb5fc4d5388952dc7a798fe784fe659f9a20e5ca4OUT 0x4d97dcd97ec945f40cf65f87097ace5ea04760450 MATIC0.0033609555
0x2c7f73fe433616488cbe6ecacaeb23b5b656c63c7c6127b361977e26be4704e1Sell219973632021-12-01 3:07:4925 mins ago0xb5fc4d5388952dc7a798fe784fe659f9a20e5ca4OUT 0x237ff66fc18ec5061313243f1397f1d56603aec70 MATIC0.001731555
0xa1d1791443e8eccf2506da76c55515aec72ba479e3cd786fe92383b285ac8044Split Position219973612021-12-01 3:07:4525 mins ago0xb5fc4d5388952dc7a798fe784fe659f9a20e5ca4OUT 0x4d97dcd97ec945f40cf65f87097ace5ea04760450 MATIC0.0033609555
0x2c18624ced13340246fcbfdbe35a634bdc23b80204a7204bdddd733d27d46badSell219973552021-12-01 3:07:3325 mins ago0xb5fc4d5388952dc7a798fe784fe659f9a20e5ca4OUT 0x237ff66fc18ec5061313243f1397f1d56603aec70 MATIC0.001731555
0xb4bedf06632b49a258f719eeef495b147a8934514252a2352be5e699a580fe90Split Position219973532021-12-01 3:07:2925 mins ago0xb5fc4d5388952dc7a798fe784fe659f9a20e5ca4OUT 0x4d97dcd97ec945f40cf65f87097ace5ea04760450 MATIC0.0033609555
0x5f60cc6ec15bea7729dd99e511bfd69203cb7273569c62b9058e463ef1ed7d81Sell219973492021-12-01 3:07:2125 mins ago0xb5fc4d5388952dc7a798fe784fe659f9a20e5ca4OUT 0x237ff66fc18ec5061313243f1397f1d56603aec70 MATIC0.001731555
0x98f4c35144147fe961eeaeb490f3c2371c6fc322d502fd3a1af44178698066b3Split Position219973462021-12-01 3:07:1525 mins ago0xb5fc4d5388952dc7a798fe784fe659f9a20e5ca4OUT 0x4d97dcd97ec945f40cf65f87097ace5ea04760450 MATIC0.0033609555
0x33ecb3479103d567b7f8f901f2971a21938e45838023f5992d18c3d382c21947Sell219973422021-12-01 3:07:0725 mins ago0xb5fc4d5388952dc7a798fe784fe659f9a20e5ca4OUT 0x237ff66fc18ec5061313243f1397f1d56603aec70 MATIC0.0020201475
0x7d56e971832843b8a836759ffb9d4eb63f667b60a77100a1c2ecd60ec225663eSplit Position219973402021-12-01 3:07:0326 mins ago0xb5fc4d5388952dc7a798fe784fe659f9a20e5ca4OUT 0x4d97dcd97ec945f40cf65f87097ace5ea04760450 MATIC0.00443693775
0xa68395b5beb85b4e6a91d6d379f62d066b5259d83599becd2a9edcf7b5290454Sell219971652021-12-01 3:01:0132 mins ago0xb5fc4d5388952dc7a798fe784fe659f9a20e5ca4OUT 0x237ff66fc18ec5061313243f1397f1d56603aec70 MATIC0.007906584
0xc00814aa6112be8b84847cf07bb344ee6f54f0e1677eb5214c58e7dbbd92b934Sell219970742021-12-01 2:57:5335 mins ago0xb5fc4d5388952dc7a798fe784fe659f9a20e5ca4OUT 0x237ff66fc18ec5061313243f1397f1d56603aec70 MATIC0.007906584
0xddebf89069fd35d0ee9186aa816c779fcc01b52736fdd4ea46b315ecbed62c0bSell219968542021-12-01 2:49:5943 mins ago0xb5fc4d5388952dc7a798fe784fe659f9a20e5ca4OUT 0x237ff66fc18ec5061313243f1397f1d56603aec70 MATIC0.007906584
0xd813f6896f4ae82781c6198e4868e6fa3eb21e1ea1cc950ac747622e9c031ddcSell219968452021-12-01 2:49:2343 mins ago0xb5fc4d5388952dc7a798fe784fe659f9a20e5ca4OUT 0x237ff66fc18ec5061313243f1397f1d56603aec70 MATIC0.006918261
0x1358fceba619081393feb512b429ab72a98b1728d1f030e4fcc4449d257eb739Buy219954522021-12-01 1:59:121 hr 33 mins ago0xb5fc4d5388952dc7a798fe784fe659f9a20e5ca4OUT 0xed14bd1b65e14741f8e44aa18e2d5436822c928d0 MATIC0.00669147675
0xfbd24cd712c725c2a575a164971d777502175542d8396b387ca077a63ee660beBuy219954502021-12-01 1:59:041 hr 34 mins ago0xb5fc4d5388952dc7a798fe784fe659f9a20e5ca4OUT 0xed14bd1b65e14741f8e44aa18e2d5436822c928d0 MATIC0.00669147675
0x9cc53d43e893d9b8b8c95c43833e6c9608bdc012298a31812e1400c86a2f043fBuy219951132021-12-01 1:45:321 hr 47 mins ago0xb5fc4d5388952dc7a798fe784fe659f9a20e5ca4OUT 0xed14bd1b65e14741f8e44aa18e2d5436822c928d0 MATIC0.00669147675
0x636a5b5dc9ecf6ef5def934299c76d924e86e9098faee8a16b7646e81afecafcBuy219951082021-12-01 1:45:221 hr 47 mins ago0xb5fc4d5388952dc7a798fe784fe659f9a20e5ca4OUT 0xed14bd1b65e14741f8e44aa18e2d5436822c928d0 MATIC0.0057351735
0xcda13bd6ce7a2dfcf589d381c098eafbc3a26d3217ecf283b6603471a1dc7f01Buy219947662021-12-01 1:33:381 hr 59 mins ago0xb5fc4d5388952dc7a798fe784fe659f9a20e5ca4OUT 0x76b2844f6cf632e3bae6c096737a0cb88ebb25970 MATIC0.00669265275
0xad01264852b96a91fb9e8993c1853fdbc2b94327cd01db1f9af0e169b5187904Buy219945662021-12-01 1:26:462 hrs 6 mins ago0xb5fc4d5388952dc7a798fe784fe659f9a20e5ca4OUT 0x76b2844f6cf632e3bae6c096737a0cb88ebb25970 MATIC0.00669309375
0x9ee94ba4b9c54ddf11e11fdc5d2b99ed5792489a4e5373d67796e80fe24e1d84Buy219943852021-12-01 1:20:322 hrs 12 mins ago0xb5fc4d5388952dc7a798fe784fe659f9a20e5ca4OUT 0x76b2844f6cf632e3bae6c096737a0cb88ebb25970 MATIC0.007648746
[ Download CSV Export 
Latest 4 internal transactions
Parent Txn Hash Block From To Value
0xa076835e7501b0dd459d3352877744458e62c8d34bf9f2f6cee57d27c6944518218263142021-11-26 15:24:074 days 12 hrs ago 0xdb6f1920a889355780af7570773609bd8cb1f4980xb5fc4d5388952dc7a798fe784fe659f9a20e5ca459.100396561109639856 MATIC
0x325cb7597e99fe0c91e949c61ae74da787d0130fd74a333d4a97028ade02b06e212498012021-11-11 14:56:0219 days 12 hrs ago 0xdb6f1920a889355780af7570773609bd8cb1f4980xb5fc4d5388952dc7a798fe784fe659f9a20e5ca457.711208069555571557 MATIC
0x9a41692c7f4edd1136daf74024ed051288998e27b83374f3183f6e8e419a9630172090622021-07-24 6:52:11129 days 20 hrs ago QuickSwap: Router0xb5fc4d5388952dc7a798fe784fe659f9a20e5ca4107.15225896318819285 MATIC
0x4d1d46c48fd244b94c04c1e855abd5cdb7607efa5ffcc44f309cd7ab3aeed363157870762021-06-16 15:32:49167 days 12 hrs ago QuickSwap: Router0xb5fc4d5388952dc7a798fe784fe659f9a20e5ca43.425937584499623435 MATIC
[ Download CSV Export 
Loading

Contract Name:
0 MATIC

Compiler Version
0

Optimization Enabled:
0 MATIC

Other Settings:
-NA-
Block Transaction Gas Used Reward
Age Block Fee Address BC Fee Address Voting Power Jailed Incoming
Block Uncle Number Difficulty Gas Used Reward
Loading
Loading
Make sure to use the "Vote Down" button for any spammy posts, and the "Vote Up" for interesting conversations.